Location: Newark
(44.5425°N, 10.7801°E)
Time: 07:22:37
(UTC+00:00)

N. Korean satellite - Pass Details

Date: 30 January 2020
Orbit: 456 x 505 km, 97.2° (Epoch: 20 February)

Event Time Altitude Azimuth Distance (km) Brightness Sun altitude
Rises 17:19:38 0° 211° (SSW) 2,462 10.9 -10.5°
Reaches altitude 10° 17:22:37 10° 241° (WSW) 1,598 10.6 -11.0°
Maximum altitude 17:24:13 13° 269° (W) 1,442 10.3 -11.3°
Drops below altitude 10° 17:25:50 10° 297° (WNW) 1,611 10.0 -11.5°
Sets 17:28:53 0° 327° (NNW) 2,501 10.5 -12.1°
